�������l�o���
Date,Time,MP-1(��Sv/h),MP-2(��Sv/h),MP-3(��Sv/h),MP-4(��Sv/h),MP-5(��Sv/h),MP-6(��Sv/h),MP-7(��Sv/h),MP-8(��Sv/h),����,����(m/s),���J
2024/04/14,00:00,0.498,0.765,0.481,0.933,0.668,0.312,0.546,0.514,��,0.9,��
2024/04/14,00:10,0.500,0.762,0.479,0.935,0.669,0.313,0.547,0.513,�쐼,1.4,��
2024/04/14,00:20,0.499,0.763,0.480,0.929,0.669,0.312,0.546,0.512,�쐼,1.7,��
2024/04/14,00:30,0.499,0.763,0.481,0.930,0.669,0.312,0.546,0.512,��쐼,1.5,��
2024/04/14,00:40,0.499,0.765,0.478,0.932,0.669,0.311,0.547,0.513,��,2.2,��
2024/04/14,00:50,0.499,0.764,0.481,0.933,0.669,0.312,0.547,0.514,��쐼,2.3,��
2024/04/14,01:00,0.498,0.763,0.481,0.932,0.668,0.313,0.547,0.514,��,2.5,��
2024/04/14,01:10,0.497,0.761,0.481,0.931,0.669,0.311,0.546,0.512,��,1.7,��
2024/04/14,01:20,0.500,0.763,0.480,0.933,0.668,0.312,0.545,0.513,��,1.5,��
2024/04/14,01:30,0.498,0.762,0.480,0.931,0.670,0.312,0.547,0.511,��,2.3,��
2024/04/14,01:40,0.498,0.761,0.481,0.933,0.668,0.311,0.546,0.513,��,2.6,��
2024/04/14,01:50,0.499,0.761,0.482,0.933,0.670,0.313,0.546,0.514,��,2.6,��
2024/04/14,02:00,0.500,0.764,0.480,0.932,0.668,0.312,0.548,0.513,��,2.8,��
2024/04/14,02:10,0.499,0.762,0.481,0.932,0.670,0.313,0.546,0.514,��,2.9,��
2024/04/14,02:20,0.500,0.762,0.480,0.934,0.668,0.311,0.547,0.514,��,2.9,��
2024/04/14,02:30,0.499,0.762,0.481,0.934,0.667,0.313,0.547,0.512,��,2.6,��
2024/04/14,02:40,0.500,0.763,0.479,0.931,0.670,0.312,0.547,0.513,��,2.9,��
2024/04/14,02:50,0.499,0.762,0.480,0.933,0.667,0.312,0.545,0.512,��,2.8,��
2024/04/14,03:00,0.499,0.762,0.480,0.933,0.670,0.312,0.547,0.513,��쐼,2.9,��
2024/04/14,03:10,0.499,0.762,0.480,0.932,0.668,0.311,0.547,0.513,��,3.5,��
2024/04/14,03:20,0.500,0.762,0.481,0.932,0.668,0.311,0.547,0.512,��쐼,3.5,��
2024/04/14,03:30,0.498,0.758,0.481,0.933,0.669,0.312,0.546,0.513,��,3.8,��
2024/04/14,03:40,0.497,0.761,0.480,0.933,0.668,0.311,0.546,0.513,��,3.4,��
2024/04/14,03:50,0.497,0.761,0.480,0.932,0.669,0.312,0.548,0.514,��,3.5,��
2024/04/14,04:00,0.498,0.762,0.480,0.932,0.668,0.312,0.547,0.513,��,3.3,��
2024/04/14,04:10,0.498,0.761,0.482,0.933,0.666,0.313,0.546,0.512,��,3.0,��
2024/04/14,04:20,0.499,0.762,0.481,0.932,0.668,0.313,0.546,0.513,��,3.0,��
2024/04/14,04:30,0.498,0.762,0.480,0.933,0.669,0.312,0.546,0.513,��,1.9,��
2024/04/14,04:40,0.499,0.762,0.480,0.933,0.667,0.312,0.546,0.514,��,2.2,��
2024/04/14,04:50,0.498,0.760,0.480,0.934,0.667,0.311,0.546,0.511,��,2.8,��
2024/04/14,05:00,0.497,0.762,0.480,0.933,0.668,0.312,0.545,0.512,��쐼,2.9,��
2024/04/14,05:10,0.498,0.760,0.480,0.932,0.669,0.311,0.546,0.512,��쐼,2.9,��
2024/04/14,05:20,0.499,0.762,0.481,0.931,0.668,0.312,0.546,0.513,��쐼,2.3,��
2024/04/14,05:30,0.499,0.762,0.479,0.931,0.669,0.310,0.545,0.513,��쐼,1.7,��
2024/04/14,05:40,0.498,0.762,0.480,0.931,0.668,0.312,0.547,0.512,�쐼,1.4,��
2024/04/14,05:50,0.497,0.762,0.481,0.932,0.667,0.310,0.547,0.513,��쐼,1.1,��
2024/04/14,06:00,0.498,0.760,0.480,0.932,0.670,0.312,0.547,0.513,��쐼,0.9,��
2024/04/14,06:10,0.498,0.763,0.481,0.932,0.668,0.313,0.545,0.513,��쐼,0.9,��
2024/04/14,06:20,0.499,0.765,0.480,0.931,0.668,0.311,0.548,0.514,��쐼,0.6,��
2024/04/14,06:30,0.496,0.763,0.481,0.932,0.667,0.314,0.546,0.512,-,CALM,��
2024/04/14,06:40,0.498,0.763,0.481,0.931,0.668,0.313,0.547,0.512,��,0.6,��
2024/04/14,06:50,0.497,0.763,0.479,0.934,0.670,0.314,0.549,0.512,-,CALM,��
2024/04/14,07:00,0.498,0.762,0.481,0.935,0.670,0.312,0.547,0.514,�쓌,0.6,��
2024/04/14,07:10,0.497,0.762,0.481,0.933,0.669,0.312,0.550,0.515,-,CALM,��
2024/04/14,07:20,0.498,0.762,0.482,0.932,0.669,0.312,0.548,0.513,-,CALM,��
2024/04/14,07:30,0.499,0.761,0.480,0.933,0.669,0.311,0.548,0.514,-,CALM,��
2024/04/14,07:40,0.500,0.761,0.482,0.931,0.671,0.311,0.547,0.515,���k��,0.9,��
2024/04/14,07:50,0.499,0.763,0.481,0.932,0.668,0.311,0.549,0.513,�k�k��,1.5,��
2024/04/14,08:00,0.500,0.763,0.480,0.930,0.671,0.311,0.548,0.513,�k��,1.5,��
2024/04/14,08:10,0.500,0.763,0.480,0.932,0.667,0.311,0.548,0.514,�k��,1.4,��
2024/04/14,08:20,0.498,0.762,0.480,0.934,0.668,0.311,0.545,0.513,���k��,1.2,��
2024/04/14,08:30,0.499,0.763,0.481,0.934,0.667,0.310,0.546,0.513,���쓌,1.2,��
2024/04/14,08:40,0.499,0.762,0.480,0.932,0.668,0.311,0.547,0.512,�쓌,1.7,��
2024/04/14,08:50,0.498,0.762,0.480,0.933,0.668,0.312,0.546,0.513,�쓌,1.2,��
2024/04/14,09:00,0.499,0.764,0.481,0.936,0.671,0.310,0.545,0.512,��쓌,2.6,��
2024/04/14,09:10,0.499,0.762,0.481,0.933,0.670,0.311,0.548,0.511,��쓌,2.2,��
2024/04/14,09:20,0.498,0.762,0.480,0.933,0.671,0.312,0.546,0.512,��쓌,2.9,��
2024/04/14,09:30,0.499,0.764,0.480,0.934,0.670,0.313,0.546,0.512,��쓌,3.4,��
2024/04/14,09:40,0.501,0.764,0.480,0.934,0.668,0.312,0.545,0.511,��쓌,4.1,��
2024/04/14,09:50,0.499,0.765,0.479,0.933,0.668,0.312,0.546,0.510,��쓌,4.3,��
2024/04/14,10:00,0.499,0.762,0.480,0.935,0.669,0.312,0.545,0.512,��쓌,4.4,��
2024/04/14,10:10,0.499,0.764,0.480,0.935,0.669,0.311,0.546,0.512,��쓌,3.9,��
2024/04/14,10:20,0.500,0.766,0.480,0.935,0.670,0.313,0.545,0.512,��쓌,4.0,��
2024/04/14,10:30,0.499,0.762,0.482,0.934,0.671,0.312,0.546,0.513,��쓌,4.3,��
2024/04/14,10:40,0.499,0.764,0.480,0.935,0.670,0.313,0.546,0.511,�쓌,3.9,��
2024/04/14,10:50,0.499,0.764,0.481,0.935,0.669,0.312,0.546,0.512,��쓌,5.3,��
2024/04/14,11:00,0.500,0.763,0.481,0.935,0.670,0.311,0.547,0.512,��쓌,5.5,��
2024/04/14,11:10,0.499,0.765,0.480,0.937,0.670,0.312,0.546,0.513,��쓌,6.0,��
2024/04/14,11:20,0.500,0.764,0.481,0.936,0.670,0.312,0.546,0.513,��쓌,7.5,��
2024/04/14,11:30,0.500,0.766,0.481,0.934,0.670,0.313,0.547,0.513,��쓌,7.1,��
2024/04/14,11:40,0.500,0.766,0.482,0.936,0.671,0.314,0.546,0.512,��쓌,7.0,��
2024/04/14,11:50,0.500,0.765,0.481,0.937,0.671,0.312,0.546,0.513,��쓌,7.6,��
2024/04/14,12:00,0.501,0.765,0.482,0.933,0.672,0.312,0.547,0.512,��쓌,8.4,��
2024/04/14,12:10,0.502,0.763,0.480,0.934,0.671,0.313,0.547,0.511,��,6.9,��
2024/04/14,12:20,0.500,0.766,0.480,0.935,0.673,0.312,0.548,0.512,��,8.0,��
2024/04/14,12:30,0.501,0.764,0.482,0.935,0.672,0.313,0.546,0.513,��쓌,7.5,��
2024/04/14,12:40,0.501,0.765,0.481,0.935,0.673,0.313,0.547,0.512,��쓌,8.2,��
2024/04/14,12:50,0.500,0.766,0.481,0.935,0.672,0.311,0.548,0.513,��,7.3,��
2024/04/14,13:00,0.500,0.764,0.483,0.935,0.672,0.313,0.548,0.512,��쓌,7.6,��
2024/04/14,13:10,0.501,0.766,0.480,0.934,0.671,0.313,0.546,0.512,��쓌,7.5,��
2024/04/14,13:20,0.500,0.767,0.481,0.936,0.673,0.312,0.548,0.512,��,8.4,��
2024/04/14,13:30,0.501,0.765,0.481,0.935,0.673,0.312,0.548,0.513,��쓌,8.6,��
2024/04/14,13:40,0.501,0.765,0.483,0.936,0.673,0.312,0.550,0.512,��쓌,8.4,��
2024/04/14,13:50,0.500,0.764,0.481,0.935,0.673,0.313,0.549,0.512,��,7.6,��
2024/04/14,14:00,0.499,0.763,0.481,0.937,0.672,0.312,0.548,0.512,��,7.8,��
2024/04/14,14:10,0.499,0.765,0.481,0.936,0.673,0.312,0.548,0.512,��쓌,6.7,��
2024/04/14,14:20,0.500,0.765,0.481,0.936,0.672,0.312,0.549,0.514,��쓌,6.9,��
2024/04/14,14:30,0.498,0.765,0.482,0.936,0.673,0.313,0.549,0.513,��쓌,6.5,��
2024/04/14,14:40,0.499,0.766,0.481,0.938,0.672,0.311,0.550,0.513,��쓌,7.5,��
2024/04/14,14:50,0.501,0.767,0.482,0.937,0.673,0.312,0.547,0.513,��쓌,7.1,��
2024/04/14,15:00,0.499,0.766,0.481,0.935,0.674,0.313,0.550,0.513,��쓌,6.8,��
2024/04/14,15:10,0.500,0.766,0.482,0.937,0.673,0.312,0.549,0.512,��쓌,7.2,��
2024/04/14,15:20,0.502,0.766,0.482,0.934,0.673,0.312,0.549,0.513,��쓌,8.9,��
2024/04/14,15:30,0.500,0.764,0.482,0.933,0.675,0.313,0.549,0.513,��쓌,8.2,��
2024/04/14,15:40,0.500,0.766,0.482,0.936,0.674,0.312,0.549,0.513,��쓌,6.8,��
2024/04/14,15:50,0.499,0.767,0.482,0.937,0.673,0.313,0.549,0.512,��쓌,5.7,��
2024/04/14,16:00,0.501,0.766,0.481,0.933,0.673,0.312,0.549,0.513,��,6.8,��
2024/04/14,16:10,0.501,0.765,0.481,0.935,0.672,0.313,0.549,0.512,��쓌,8.0,��
2024/04/14,16:20,0.499,0.765,0.481,0.936,0.673,0.312,0.551,0.511,��,7.8,��
2024/04/14,16:30,0.500,0.765,0.482,0.934,0.672,0.313,0.551,0.512,��,7.6,��
2024/04/14,16:40,0.499,0.765,0.481,0.933,0.671,0.313,0.548,0.512,��,7.4,��
2024/04/14,16:50,0.500,0.765,0.482,0.935,0.675,0.312,0.550,0.511,��,7.1,��
2024/04/14,17:00,0.500,0.764,0.481,0.936,0.673,0.312,0.551,0.512,��,7.4,��
2024/04/14,17:10,0.500,0.766,0.482,0.937,0.673,0.311,0.551,0.512,��,7.2,��
2024/04/14,17:20,0.500,0.767,0.482,0.936,0.673,0.313,0.549,0.514,��,7.7,��
2024/04/14,17:30,0.501,0.766,0.480,0.935,0.673,0.313,0.550,0.512,��,6.7,��
2024/04/14,17:40,0.500,0.766,0.480,0.937,0.672,0.312,0.551,0.513,��,7.3,��
2024/04/14,17:50,0.499,0.766,0.481,0.938,0.674,0.313,0.549,0.513,��,7.3,��
2024/04/14,18:00,0.499,0.767,0.479,0.937,0.672,0.312,0.550,0.515,��,6.7,��
2024/04/14,18:10,0.501,0.769,0.482,0.939,0.672,0.313,0.550,0.515,��,6.7,��
2024/04/14,18:20,0.501,0.768,0.482,0.939,0.673,0.313,0.549,0.513,��,7.1,��
2024/04/14,18:30,0.500,0.767,0.481,0.937,0.673,0.314,0.550,0.515,��,5.1,��
2024/04/14,18:40,0.501,0.767,0.483,0.936,0.674,0.313,0.550,0.515,��,4.3,��
2024/04/14,18:50,0.502,0.769,0.485,0.937,0.673,0.314,0.551,0.514,��,4.0,��
2024/04/14,19:00,0.503,0.769,0.484,0.937,0.674,0.313,0.552,0.514,��쓌,4.8,��
2024/04/14,19:10,0.503,0.769,0.483,0.938,0.674,0.314,0.551,0.514,��,4.8,��
2024/04/14,19:20,0.502,0.767,0.482,0.939,0.677,0.313,0.552,0.515,��,4.2,��
2024/04/14,19:30,0.502,0.767,0.484,0.938,0.674,0.314,0.550,0.514,��,4.5,��
2024/04/14,19:40,0.503,0.768,0.485,0.938,0.675,0.314,0.551,0.514,��,4.4,��
2024/04/14,19:50,0.502,0.768,0.483,0.937,0.675,0.314,0.552,0.515,��,4.6,��
2024/04/14,20:00,0.502,0.769,0.482,0.937,0.675,0.315,0.552,0.515,��,5.9,��
2024/04/14,20:10,0.501,0.770,0.485,0.937,0.674,0.314,0.551,0.514,��,5.3,��
2024/04/14,20:20,0.501,0.767,0.483,0.937,0.676,0.313,0.551,0.515,��,5.0,��
2024/04/14,20:30,0.503,0.769,0.482,0.935,0.674,0.315,0.551,0.514,��,5.1,��
2024/04/14,20:40,0.501,0.769,0.483,0.939,0.675,0.313,0.551,0.515,��,4.8,��
2024/04/14,20:50,0.503,0.770,0.484,0.939,0.676,0.313,0.550,0.514,��,5.0,��
2024/04/14,21:00,0.501,0.767,0.483,0.939,0.675,0.313,0.552,0.514,��,5.6,��
2024/04/14,21:10,0.503,0.767,0.483,0.939,0.676,0.314,0.550,0.514,��,5.3,��
2024/04/14,21:20,0.502,0.769,0.484,0.939,0.675,0.315,0.550,0.513,��쐼,5.5,��
2024/04/14,21:30,0.503,0.769,0.484,0.938,0.676,0.314,0.550,0.514,��쐼,5.0,��
2024/04/14,21:40,0.502,0.768,0.484,0.939,0.676,0.315,0.550,0.514,��쐼,4.8,��
2024/04/14,21:50,0.503,0.767,0.485,0.938,0.675,0.315,0.551,0.513,��쐼,4.4,��
2024/04/14,22:00,0.502,0.768,0.482,0.938,0.675,0.314,0.549,0.515,��쐼,4.1,��
2024/04/14,22:10,0.502,0.769,0.484,0.937,0.677,0.314,0.550,0.515,��쐼,4.2,��
2024/04/14,22:20,0.502,0.769,0.482,0.940,0.676,0.315,0.550,0.513,��쐼,3.5,��
2024/04/14,22:30,0.500,0.766,0.483,0.939,0.675,0.315,0.549,0.515,�쐼,2.3,��
2024/04/14,22:40,0.501,0.769,0.484,0.939,0.673,0.313,0.550,0.515,�쐼,1.2,��
2024/04/14,22:50,0.501,0.767,0.483,0.939,0.675,0.317,0.550,0.513,�k�k��,0.6,��
2024/04/14,23:00,0.503,0.769,0.482,0.939,0.675,0.315,0.548,0.513,�k,1.5,��
2024/04/14,23:10,0.501,0.768,0.482,0.936,0.676,0.315,0.550,0.516,�k�k��,3.5,��
2024/04/14,23:20,0.501,0.767,0.485,0.938,0.677,0.315,0.549,0.515,�k�k��,5.3,��
2024/04/14,23:30,0.501,0.769,0.484,0.940,0.675,0.314,0.549,0.516,�k�k��,4.7,��
2024/04/14,23:40,0.502,0.770,0.484,0.936,0.676,0.314,0.548,0.515,�k�k��,5.2,��
2024/04/14,23:50,0.502,0.768,0.483,0.939,0.675,0.315,0.549,0.514,�k�k��,5.0,��
